Time,TemperatureF,DewpointF,PressureIn,WindDirection,WindDirectionDegrees,WindSpeedMPH,WindSpeedGustMPH,Humidity,HourlyPrecipIn,Conditions,Clouds,dailyrainin,SoftwareType,DateUTC
2013-05-02 00:02:00,65.0,36.0,-100.00,South,191,2.0,-999.0,34,0.00,,,-99.99,,2013-05-02 07:02:00,
2013-05-02 00:11:00,65.0,36.0,-100.00,South,191,2.0,-999.0,34,0.00,,,-99.99,,2013-05-02 07:11:00,
2013-05-02 00:21:00,65.0,36.0,-100.00,South,191,2.0,-999.0,34,0.00,,,-99.99,,2013-05-02 07:21:00,
2013-05-02 00:31:00,65.0,36.0,-100.00,South,191,2.0,-999.0,34,0.00,,,-99.99,,2013-05-02 07:31:00,
2013-05-02 00:41:00,65.0,36.0,-100.00,South,191,2.0,-999.0,34,0.00,,,-99.99,,2013-05-02 07:41:00,
2013-05-02 01:02:00,63.0,40.0,-100.00,SE,135,4.0,-999.0,43,0.00,,,-99.99,,2013-05-02 08:02:00,
2013-05-02 01:11:00,63.0,-99.9,-100.00,SE,135,4.0,-999.0,43,0.00,,,-99.99,,2013-05-02 08:11:00,
2013-05-02 01:22:00,63.0,-99.9,-100.00,SE,135,4.0,-999.0,43,0.00,,,-99.99,,2013-05-02 08:22:00,
2013-05-02 01:32:00,63.0,-99.9,-100.00,SE,135,4.0,-999.0,43,0.00,,,-99.99,,2013-05-02 08:32:00,
2013-05-02 01:42:00,63.0,-99.9,-100.00,SE,135,4.0,-999.0,43,0.00,,,-99.99,,2013-05-02 08:42:00,
2013-05-02 02:02:00,60.0,44.0,-100.00,SE,124,4.0,-999.0,55,0.00,,,-99.99,,2013-05-02 09:02:00,
2013-05-02 02:33:00,60.0,-99.9,-100.00,SE,124,4.0,-999.0,55,0.00,,,-99.99,,2013-05-02 09:33:00,
2013-05-02 02:43:00,60.0,-99.9,-100.00,SE,124,4.0,-999.0,55,0.00,,,-99.99,,2013-05-02 09:43:00,
2013-05-02 03:02:00,59.0,43.0,-100.00,NW,319,2.0,-999.0,54,0.00,,,-99.99,,2013-05-02 10:02:00,
2013-05-02 03:33:00,59.0,-99.9,-100.00,NW,319,2.0,-999.0,54,0.00,,,-99.99,,2013-05-02 10:33:00,
2013-05-02 03:42:00,59.0,-99.9,-100.00,NW,319,2.0,-999.0,54,0.00,,,-99.99,,2013-05-02 10:42:00,
2013-05-02 04:02:00,61.0,44.0,-100.00,NNE,16,2.0,-999.0,54,0.00,,,-99.99,,2013-05-02 11:02:00,
2013-05-02 04:12:00,61.0,-99.9,-100.00,NNE,16,2.0,-999.0,54,0.00,,,-99.99,,2013-05-02 11:12:00,
2013-05-02 04:22:00,61.0,-99.9,-100.00,NNE,16,2.0,-999.0,54,0.00,,,-99.99,,2013-05-02 11:22:00,
2013-05-02 04:32:00,61.0,-99.9,-100.00,NNE,16,2.0,-999.0,54,0.00,,,-99.99,,2013-05-02 11:32:00,
2013-05-02 04:42:00,61.0,-99.9,-100.00,NNE,16,2.0,-999.0,54,0.00,,,-99.99,,2013-05-02 11:42:00,
2013-05-02 05:01:00,58.0,46.0,-100.00,SE,138,4.0,-999.0,65,0.00,,,-99.99,,2013-05-02 12:01:00,
2013-05-02 05:12:00,58.0,-99.9,-100.00,SE,138,4.0,-999.0,65,0.00,,,-99.99,,2013-05-02 12:12:00,
2013-05-02 05:22:00,58.0,-99.9,-100.00,SE,138,4.0,-999.0,65,0.00,,,-99.99,,2013-05-02 12:22:00,
2013-05-02 05:32:00,58.0,-99.9,-100.00,SE,138,4.0,-999.0,65,0.00,,,-99.99,,2013-05-02 12:32:00,
2013-05-02 05:42:00,58.0,-99.9,-100.00,SE,138,4.0,-999.0,65,0.00,,,-99.99,,2013-05-02 12:42:00,
2013-05-02 06:01:00,58.0,48.0,-100.00,SE,133,2.0,-999.0,70,0.00,,,-99.99,,2013-05-02 13:01:00,
2013-05-02 06:11:00,58.0,-99.9,-100.00,SE,133,2.0,-999.0,70,0.00,,,-99.99,,2013-05-02 13:11:00,
2013-05-02 06:22:00,58.0,-99.9,-100.00,SE,133,2.0,-999.0,70,0.00,,,-99.99,,2013-05-02 13:22:00,
2013-05-02 06:32:00,58.0,-99.9,-100.00,SE,133,2.0,-999.0,70,0.00,,,-99.99,,2013-05-02 13:32:00,
2013-05-02 06:42:00,58.0,-99.9,-100.00,SE,133,2.0,-999.0,70,0.00,,,-99.99,,2013-05-02 13:42:00,
2013-05-02 07:02:00,61.0,47.0,-100.00,SSE,161,4.0,-999.0,59,0.00,,,-99.99,,2013-05-02 14:02:00,
2013-05-02 07:11:00,61.0,-99.9,-100.00,SSE,161,4.0,-999.0,59,0.00,,,-99.99,,2013-05-02 14:11:00,
2013-05-02 07:22:00,61.0,-99.9,-100.00,SSE,161,4.0,-999.0,59,0.00,,,-99.99,,2013-05-02 14:22:00,
2013-05-02 07:32:00,61.0,-99.9,-100.00,SSE,161,4.0,-999.0,59,0.00,,,-99.99,,2013-05-02 14:32:00,
2013-05-02 07:43:00,61.0,-99.9,-100.00,SSE,161,4.0,-999.0,59,0.00,,,-99.99,,2013-05-02 14:43:00,
2013-05-02 08:02:00,62.0,51.0,-100.00,WNW,295,0.0,-999.0,66,0.00,,,-99.99,,2013-05-02 15:02:00,
2013-05-02 08:12:00,62.0,-99.9,-100.00,WNW,295,0.0,-999.0,66,0.00,,,-99.99,,2013-05-02 15:12:00,
2013-05-02 08:22:00,62.0,-99.9,-100.00,WNW,295,0.0,-999.0,66,0.00,,,-99.99,,2013-05-02 15:22:00,
2013-05-02 08:33:00,62.0,-99.9,-100.00,WNW,295,0.0,-999.0,66,0.00,,,-99.99,,2013-05-02 15:33:00,
2013-05-02 08:43:00,62.0,-99.9,-100.00,WNW,295,0.0,-999.0,66,0.00,,,-99.99,,2013-05-02 15:43:00,
2013-05-02 09:02:00,70.0,47.0,-100.00,SSE,155,0.0,-999.0,44,0.00,,,-99.99,,2013-05-02 16:02:00,
2013-05-02 09:13:00,70.0,-99.9,-100.00,SSE,155,0.0,-999.0,44,0.00,,,-99.99,,2013-05-02 16:13:00,
2013-05-02 09:23:00,70.0,-99.9,-100.00,SSE,155,0.0,-999.0,44,0.00,,,-99.99,,2013-05-02 16:23:00,
2013-05-02 09:32:00,70.0,-99.9,-100.00,SSE,155,0.0,-999.0,44,0.00,,,-99.99,,2013-05-02 16:32:00,
2013-05-02 09:43:00,70.0,-99.9,-100.00,SSE,155,0.0,-999.0,44,0.00,,,-99.99,,2013-05-02 16:43:00,
2013-05-02 10:02:00,76.0,31.0,-100.00,South,172,1.0,-999.0,19,0.00,,,-99.99,,2013-05-02 17:02:00,
2013-05-02 10:12:00,76.0,31.0,-100.00,South,172,1.0,-999.0,19,0.00,,,-99.99,,2013-05-02 17:12:00,
2013-05-02 10:22:00,76.0,31.0,-100.00,South,172,1.0,-999.0,19,0.00,,,-99.99,,2013-05-02 17:22:00,
2013-05-02 10:31:00,76.0,31.0,-100.00,South,172,1.0,-999.0,19,0.00,,,-99.99,,2013-05-02 17:31:00,
2013-05-02 10:41:00,76.0,31.0,-100.00,South,172,1.0,-999.0,19,0.00,,,-99.99,,2013-05-02 17:41:00,
2013-05-02 11:01:00,80.0,27.0,-100.00,North,351,5.0,-999.0,14,0.00,,,-99.99,,2013-05-02 18:01:00,
2013-05-02 11:11:00,80.0,27.0,-100.00,North,351,5.0,-999.0,14,0.00,,,-99.99,,2013-05-02 18:11:00,
2013-05-02 11:21:00,80.0,27.0,-100.00,North,351,5.0,-999.0,14,0.00,,,-99.99,,2013-05-02 18:21:00,
2013-05-02 11:31:00,80.0,27.0,-100.00,North,351,5.0,-999.0,14,0.00,,,-99.99,,2013-05-02 18:31:00,
2013-05-02 11:41:00,80.0,27.0,-100.00,North,351,5.0,-999.0,14,0.00,,,-99.99,,2013-05-02 18:41:00,
2013-05-02 12:01:00,82.0,22.0,-100.00,NE,53,12.0,-999.0,11,0.00,,,-99.99,,2013-05-02 19:01:00,
2013-05-02 12:11:00,82.0,22.0,-100.00,NE,53,12.0,-999.0,11,0.00,,,-99.99,,2013-05-02 19:11:00,
2013-05-02 12:21:00,82.0,22.0,-100.00,NE,53,12.0,-999.0,11,0.00,,,-99.99,,2013-05-02 19:21:00,
2013-05-02 12:31:00,82.0,22.0,-100.00,NE,53,12.0,-999.0,11,0.00,,,-99.99,,2013-05-02 19:31:00,
2013-05-02 12:41:00,82.0,22.0,-100.00,NE,53,12.0,-999.0,11,0.00,,,-99.99,,2013-05-02 19:41:00,
2013-05-02 13:02:00,85.0,24.0,-100.00,NE,52,10.0,-999.0,11,0.00,,,-99.99,,2013-05-02 20:02:00,
2013-05-02 13:11:00,85.0,24.0,-100.00,NE,52,10.0,-999.0,11,0.00,,,-99.99,,2013-05-02 20:11:00,
2013-05-02 13:22:00,85.0,24.0,-100.00,NE,52,10.0,-999.0,11,0.00,,,-99.99,,2013-05-02 20:22:00,
2013-05-02 13:32:00,85.0,24.0,-100.00,NE,52,10.0,-999.0,11,0.00,,,-99.99,,2013-05-02 20:32:00,
2013-05-02 13:41:00,85.0,24.0,-100.00,NE,52,10.0,-999.0,11,0.00,,,-99.99,,2013-05-02 20:41:00,
2013-05-02 14:01:00,87.0,26.0,-100.00,ENE,70,6.0,-999.0,11,0.00,,,-99.99,,2013-05-02 21:01:00,
2013-05-02 14:11:00,87.0,26.0,-100.00,ENE,70,6.0,-999.0,11,0.00,,,-99.99,,2013-05-02 21:11:00,
2013-05-02 14:21:00,87.0,26.0,-100.00,ENE,70,6.0,-999.0,11,0.00,,,-99.99,,2013-05-02 21:21:00,
2013-05-02 14:33:00,87.0,26.0,-100.00,ENE,70,6.0,-999.0,11,0.00,,,-99.99,,2013-05-02 21:33:00,
2013-05-02 14:42:00,87.0,26.0,-100.00,ENE,70,6.0,-999.0,11,0.00,,,-99.99,,2013-05-02 21:42:00,
2013-05-02 15:02:00,88.0,27.0,-100.00,ESE,102,5.0,-999.0,11,0.00,,,-99.99,,2013-05-02 22:02:00,
2013-05-02 15:12:00,88.0,27.0,-100.00,ESE,102,5.0,-999.0,11,0.00,,,-99.99,,2013-05-02 22:12:00,
2013-05-02 15:22:00,88.0,27.0,-100.00,ESE,102,5.0,-999.0,11,0.00,,,-99.99,,2013-05-02 22:22:00,
2013-05-02 15:32:00,88.0,27.0,-100.00,ESE,102,5.0,-999.0,11,0.00,,,-99.99,,2013-05-02 22:32:00,
2013-05-02 15:42:00,88.0,27.0,-100.00,ESE,102,5.0,-999.0,11,0.00,,,-99.99,,2013-05-02 22:42:00,
2013-05-02 16:02:00,89.0,28.0,-100.00,SSE,159,5.0,-999.0,11,0.00,,,-99.99,,2013-05-02 23:02:00,
2013-05-02 16:11:00,89.0,28.0,-100.00,SSE,159,5.0,-999.0,11,0.00,,,-99.99,,2013-05-02 23:11:00,
2013-05-02 16:22:00,89.0,28.0,-100.00,SSE,159,5.0,-999.0,11,0.00,,,-99.99,,2013-05-02 23:22:00,
2013-05-02 16:31:00,89.0,28.0,-100.00,SSE,159,5.0,-999.0,11,0.00,,,-99.99,,2013-05-02 23:31:00,
2013-05-02 16:42:00,89.0,28.0,-100.00,SSE,159,5.0,-999.0,11,0.00,,,-99.99,,2013-05-02 23:42:00,
2013-05-02 17:01:00,88.0,31.0,-100.00,SSW,198,5.0,-999.0,13,0.00,,,-99.99,,2013-05-03 00:01:00,
2013-05-02 17:11:00,88.0,31.0,-100.00,SSW,198,5.0,-999.0,13,0.00,,,-99.99,,2013-05-03 00:11:00,
2013-05-02 17:21:00,88.0,31.0,-100.00,SSW,198,5.0,-999.0,13,0.00,,,-99.99,,2013-05-03 00:21:00,
2013-05-02 17:31:00,88.0,31.0,-100.00,SSW,198,5.0,-999.0,13,0.00,,,-99.99,,2013-05-03 00:31:00,
2013-05-02 17:41:00,88.0,31.0,-100.00,SSW,198,5.0,-999.0,13,0.00,,,-99.99,,2013-05-03 00:41:00,
2013-05-02 18:01:00,88.0,33.0,-100.00,SW,226,5.0,-999.0,14,0.00,,,-99.99,,2013-05-03 01:01:00,
2013-05-02 18:11:00,88.0,33.0,-100.00,SW,226,5.0,-999.0,14,0.00,,,-99.99,,2013-05-03 01:11:00,
2013-05-02 18:21:00,88.0,33.0,-100.00,SW,226,5.0,-999.0,14,0.00,,,-99.99,,2013-05-03 01:21:00,
2013-05-02 18:31:00,88.0,33.0,-100.00,SW,226,5.0,-999.0,14,0.00,,,-99.99,,2013-05-03 01:31:00,
2013-05-02 18:41:00,88.0,33.0,-100.00,SW,226,5.0,-999.0,14,0.00,,,-99.99,,2013-05-03 01:41:00,
2013-05-02 19:01:00,84.0,35.0,-100.00,West,280,11.0,-999.0,17,0.00,,,-99.99,,2013-05-03 02:01:00,
2013-05-02 19:11:00,84.0,35.0,-100.00,West,280,11.0,-999.0,17,0.00,,,-99.99,,2013-05-03 02:11:00,
2013-05-02 19:21:00,84.0,35.0,-100.00,West,280,11.0,-999.0,17,0.00,,,-99.99,,2013-05-03 02:21:00,
2013-05-02 19:31:00,84.0,35.0,-100.00,West,280,11.0,-999.0,17,0.00,,,-99.99,,2013-05-03 02:31:00,
2013-05-02 19:41:00,84.0,35.0,-100.00,West,280,11.0,-999.0,17,0.00,,,-99.99,,2013-05-03 02:41:00,
2013-05-02 20:01:00,77.0,28.0,-100.00,West,273,9.0,-999.0,16,0.00,,,-99.99,,2013-05-03 03:01:00,
2013-05-02 20:21:00,77.0,28.0,-100.00,West,273,9.0,-999.0,16,0.00,,,-99.99,,2013-05-03 03:21:00,
2013-05-02 20:33:00,77.0,28.0,-100.00,West,273,9.0,-999.0,16,0.00,,,-99.99,,2013-05-03 03:33:00,
2013-05-02 20:42:00,77.0,28.0,-100.00,West,273,9.0,-999.0,16,0.00,,,-99.99,,2013-05-03 03:42:00,
2013-05-02 21:02:00,72.0,31.0,-100.00,WNW,292,9.0,-999.0,22,0.00,,,-99.99,,2013-05-03 04:02:00,
2013-05-02 21:32:00,72.0,31.0,-100.00,WNW,292,9.0,-999.0,22,0.00,,,-99.99,,2013-05-03 04:32:00,
2013-05-02 21:42:00,72.0,31.0,-100.00,WNW,292,9.0,-999.0,22,0.00,,,-99.99,,2013-05-03 04:42:00,
2013-05-02 22:02:00,69.0,32.0,-100.00,WNW,295,7.0,-999.0,26,0.00,,,-99.99,,2013-05-03 05:02:00,
2013-05-02 22:12:00,69.0,32.0,-100.00,WNW,295,7.0,-999.0,26,0.00,,,-99.99,,2013-05-03 05:12:00,
2013-05-02 22:21:00,69.0,32.0,-100.00,WNW,295,7.0,-999.0,26,0.00,,,-99.99,,2013-05-03 05:21:00,
2013-05-02 22:32:00,69.0,32.0,-100.00,WNW,295,7.0,-999.0,26,0.00,,,-99.99,,2013-05-03 05:32:00,
2013-05-02 22:42:00,69.0,32.0,-100.00,WNW,295,7.0,-999.0,26,0.00,,,-99.99,,2013-05-03 05:42:00,
2013-05-02 23:01:00,68.0,32.0,-100.00,SW,228,3.0,-999.0,26,0.00,,,-99.99,,2013-05-03 06:01:00,
2013-05-02 23:11:00,68.0,32.0,-100.00,SW,228,3.0,-999.0,26,0.00,,,-99.99,,2013-05-03 06:11:00,
2013-05-02 23:21:00,68.0,32.0,-100.00,SW,228,3.0,-999.0,26,0.00,,,-99.99,,2013-05-03 06:21:00,
2013-05-02 23:31:00,68.0,32.0,-100.00,SW,228,3.0,-999.0,26,0.00,,,-99.99,,2013-05-03 06:31:00,
2013-05-02 23:41:00,68.0,32.0,-100.00,SW,228,3.0,-999.0,26,0.00,,,-99.99,,2013-05-03 06:41:00,